• In Hungary
  • List of Countries
  • For 7 days
  • Water Temperature
  • Satellite Maps
  • Weather Map
  • News
  • Weather Widgets
  • user-avatar
    Login

    Hourly Weather Mongu

    Today, 17 January, Wednesday

    Time Temperature Precipitation Wind Pressure Humidity
    00:00 +24°C° 0.9 mm 2 mps 672 mmHg 77%
    01:00 +23°C° 0.9 mm 2 mps 672 mmHg 82%
    02:00 +23°C° 0.9 mm 1 mps 672 mmHg 86%
    03:00 +22°C° 0 mm 1 mps 672 mmHg 86%
    04:00 +22°C° 0 mm 1 mps 672 mmHg 87%
    05:00 +22°C° 0 mm 1 mps 672 mmHg 88%
    06:00 +23°C° 0.1 mm 1 mps 672 mmHg 85%
    07:00 +23°C° 0.1 mm 2 mps 673 mmHg 82%
    08:00 +24°C° 0.1 mm 2 mps 673 mmHg 79%
    09:00 +26°C° 0.1 mm 2 mps 674 mmHg 70%
    10:00 +28°C° 0.1 mm 2 mps 674 mmHg 61%
    11:00 +30°C° 0.1 mm 3 mps 674 mmHg 51%
    12:00 +30°C° 0.2 mm 2 mps 674 mmHg 50%
    13:00 +31°C° 0.2 mm 2 mps 673 mmHg 49%
    14:00 +31°C° 0.2 mm 1 mps 673 mmHg 47%
    15:00 +31°C° 0 mm 1 mps 672 mmHg 48%
    16:00 +31°C° 0 mm 1 mps 672 mmHg 48%
    17:00 +31°C° 0 mm 1 mps 671 mmHg 49%
    18:00 +29°C° 0.4 mm 1 mps 671 mmHg 57%
    19:00 +27°C° 0.4 mm 2 mps 671 mmHg 65%
    20:00 +25°C° 0.4 mm 2 mps 671 mmHg 73%
    21:00 +25°C° 0.6 mm 2 mps 672 mmHg 77%
    22:00 +24°C° 0.6 mm 2 mps 672 mmHg 82%
    23:00 +22°C° 0.6 mm 3 mps 673 mmHg 87%

    Tomorrow, 18 January, Thursday

    Time Temperature Precipitation Wind Pressure Humidity
    00:00 +23°C° 0.1 mm 2 mps 672 mmHg 87%
    01:00 +23°C° 0.1 mm 2 mps 672 mmHg 88%
    02:00 +21°C° 0.1 mm 2 mps 671 mmHg 89%
    03:00 +21°C° 0 mm 2 mps 671 mmHg 90%
    04:00 +21°C° 0 mm 2 mps 671 mmHg 90%
    05:00 +22°C° 0 mm 1 mps 671 mmHg 91%
    06:00 +21°C° 0 mm 2 mps 672 mmHg 88%
    07:00 +23°C° 0 mm 2 mps 672 mmHg 85%
    08:00 +24°C° 0 mm 2 mps 673 mmHg 82%
    09:00 +25°C° 0 mm 2 mps 673 mmHg 73%
    10:00 +27°C° 0 mm 3 mps 673 mmHg 65%
    11:00 +29°C° 0 mm 3 mps 674 mmHg 56%
    12:00 +29°C° 0 mm 3 mps 673 mmHg 53%
    13:00 +30°C° 0 mm 2 mps 673 mmHg 49%
    14:00 +31°C° 0 mm 2 mps 672 mmHg 46%
    15:00 +31°C° 0 mm 2 mps 672 mmHg 47%
    16:00 +31°C° 0 mm 2 mps 671 mmHg 48%
    17:00 +31°C° 0 mm 1 mps 671 mmHg 49%
    18:00 +29°C° 0.2 mm 1 mps 671 mmHg 54%
    19:00 +28°C° 0.2 mm 1 mps 671 mmHg 59%
    20:00 +26°C° 0.2 mm 2 mps 671 mmHg 64%
    21:00 +26°C° 0.7 mm 2 mps 672 mmHg 69%
    22:00 +25°C° 0.7 mm 2 mps 672 mmHg 74%
    23:00 +24°C° 0.7 mm 2 mps 672 mmHg 78%

    Day after tomorrow, 19 January, Friday

    Time Temperature Precipitation Wind Pressure Humidity
    00:00 +23°C° 0 mm 2 mps 672 mmHg 79%
    01:00 +23°C° 0 mm 2 mps 671 mmHg 80%
    02:00 +21°C° 0 mm 2 mps 671 mmHg 82%
    03:00 +21°C° 0 mm 2 mps 671 mmHg 83%
    04:00 +22°C° 0 mm 1 mps 671 mmHg 85%
    05:00 +21°C° 0 mm 1 mps 671 mmHg 87%
    06:00 +22°C° 0 mm 1 mps 671 mmHg 83%
    07:00 +23°C° 0 mm 1 mps 672 mmHg 79%
    08:00 +24°C° 0 mm 1 mps 673 mmHg 76%
    09:00 +26°C° 0 mm 2 mps 673 mmHg 66%
    10:00 +29°C° 0 mm 2 mps 673 mmHg 57%
    11:00 +31°C° 0 mm 2 mps 674 mmHg 47%
    12:00 +31°C° 0 mm 2 mps 673 mmHg 46%
    13:00 +31°C° 0 mm 2 mps 672 mmHg 45%
    14:00 +31°C° 0 mm 2 mps 672 mmHg 44%
    15:00 +31°C° 0 mm 2 mps 671 mmHg 44%
    16:00 +31°C° 0 mm 2 mps 671 mmHg 44%
    17:00 +31°C° 0 mm 1 mps 671 mmHg 44%
    18:00 +30°C° 0 mm 2 mps 671 mmHg 50%
    19:00 +28°C° 0 mm 2 mps 671 mmHg 56%
    20:00 +26°C° 0 mm 2 mps 672 mmHg 62%
    21:00 +25°C° 0 mm 2 mps 672 mmHg 68%
    22:00 +24°C° 0 mm 2 mps 672 mmHg 73%
    23:00 +23°C° 0 mm 2 mps 672 mmHg 79%

    20 January, Saturday

    Time Temperature Precipitation Wind Pressure Humidity
    00:00 +23°C° 0.1 mm 2 mps 672 mmHg 81%
    01:00 +21°C° 0.1 mm 2 mps 671 mmHg 84%
    02:00 +21°C° 0.1 mm 2 mps 671 mmHg 86%
    03:00 +20°C° 0 mm 2 mps 671 mmHg 88%
    04:00 +20°C° 0 mm 2 mps 671 mmHg 90%
    05:00 +20°C° 0 mm 2 mps 671 mmHg 92%
    06:00 +21°C° 0 mm 3 mps 672 mmHg 88%
    07:00 +21°C° 0 mm 3 mps 672 mmHg 84%
    08:00 +22°C° 0 mm 3 mps 673 mmHg 80%
    09:00 +25°C° 0 mm 3 mps 673 mmHg 70%
    10:00 +28°C° 0 mm 3 mps 674 mmHg 60%
    11:00 +30°C° 0 mm 3 mps 674 mmHg 50%
    12:00 +31°C° 0 mm 2 mps 673 mmHg 46%
    13:00 +32°C° 0 mm 2 mps 673 mmHg 41%
    14:00 +34°C° 0 mm 2 mps 672 mmHg 37%
    15:00 +32°C° 0 mm 2 mps 672 mmHg 40%
    16:00 +33°C° 0 mm 3 mps 671 mmHg 43%
    17:00 +31°C° 0 mm 3 mps 671 mmHg 46%
    18:00 +29°C° 0 mm 3 mps 671 mmHg 55%
    19:00 +27°C° 0 mm 3 mps 672 mmHg 64%
    20:00 +25°C° 0 mm 3 mps 672 mmHg 72%
    21:00 +24°C° 0 mm 3 mps 672 mmHg 75%
    22:00 +22°C° 0 mm 3 mps 672 mmHg 78%
    23:00 +23°C° 0 mm 2 mps 673 mmHg 81%

    21 January, Sunday

    Time Temperature Precipitation Wind Pressure Humidity
    00:00 +21°C° 0 mm 2 mps 672 mmHg 83%
    01:00 +21°C° 0 mm 2 mps 672 mmHg 84%
    02:00 +21°C° 0 mm 2 mps 672 mmHg 85%
    03:00 +20°C° 0 mm 2 mps 671 mmHg 87%
    04:00 +20°C° 0 mm 2 mps 671 mmHg 88%
    05:00 +20°C° 0 mm 2 mps 671 mmHg 90%
    06:00 +21°C° 0 mm 2 mps 672 mmHg 86%
    07:00 +21°C° 0 mm 2 mps 672 mmHg 83%
    08:00 +23°C° 0 mm 2 mps 673 mmHg 80%
    09:00 +24°C° 0 mm 3 mps 673 mmHg 73%
    10:00 +26°C° 0 mm 3 mps 674 mmHg 66%
    11:00 +28°C° 0 mm 3 mps 674 mmHg 59%
    12:00 +28°C° 0.1 mm 3 mps 673 mmHg 57%
    13:00 +28°C° 0.1 mm 3 mps 673 mmHg 55%
    14:00 +29°C° 0.1 mm 3 mps 672 mmHg 53%
    15:00 +28°C° 0 mm 3 mps 672 mmHg 53%
    16:00 +28°C° 0 mm 2 mps 671 mmHg 53%
    17:00 +28°C° 0 mm 2 mps 671 mmHg 53%
    18:00 +26°C° 0 mm 2 mps 671 mmHg 58%
    19:00 +25°C° 0 mm 2 mps 671 mmHg 63%
    20:00 +23°C° 0 mm 2 mps 671 mmHg 68%
    21:00 +23°C° 0 mm 2 mps 672 mmHg 71%
    22:00 +21°C° 0 mm 2 mps 672 mmHg 73%
    23:00 +21°C° 0 mm 2 mps 672 mmHg 75%

    22 January, Monday

    Time Temperature Precipitation Wind Pressure Humidity
    00:00 +21°C° 0 mm 2 mps 672 mmHg 78%
    01:00 +20°C° 0 mm 2 mps 671 mmHg 82%
    02:00 +20°C° 0 mm 2 mps 671 mmHg 85%
    03:00 +20°C° 0 mm 2 mps 671 mmHg 88%
    04:00 +19°C° 0 mm 2 mps 671 mmHg 90%
    05:00 +19°C° 0 mm 2 mps 671 mmHg 92%
    06:00 +20°C° 0 mm 2 mps 672 mmHg 87%
    07:00 +21°C° 0 mm 2 mps 672 mmHg 83%
    08:00 +23°C° 0 mm 2 mps 673 mmHg 79%
    09:00 +26°C° 0 mm 2 mps 673 mmHg 68%
    10:00 +28°C° 0 mm 2 mps 674 mmHg 58%
    11:00 +30°C° 0 mm 3 mps 674 mmHg 48%
    12:00 +31°C° 0 mm 2 mps 673 mmHg 44%
    13:00 +32°C° 0 mm 2 mps 673 mmHg 40%
    14:00 +34°C° 0 mm 2 mps 672 mmHg 37%
    15:00 +34°C° 0 mm 2 mps 672 mmHg 38%
    16:00 +32°C° 0 mm 2 mps 671 mmHg 39%
    17:00 +32°C° 0 mm 1 mps 671 mmHg 40%
    18:00 +30°C° 0 mm 1 mps 671 mmHg 46%
    19:00 +28°C° 0 mm 1 mps 671 mmHg 51%
    20:00 +26°C° 0 mm 1 mps 671 mmHg 57%
    21:00 +25°C° 0 mm 2 mps 671 mmHg 62%
    22:00 +24°C° 0 mm 2 mps 672 mmHg 68%
    23:00 +23°C° 0 mm 2 mps 672 mmHg 73%
    Show more